TVF84SQ LFPO-LTAI

Flight info

Callsign TVF84SQ
Flight time N/A
Altitude 23000
Route BUBLI DCT LUVAL/N0440F350 DCT BEGAR DCT TRA DCT GAMSA N871 MADEB M738 NATAG DCT NAXAV/N0439F370 DCT NIVAS DCT PEVAL DCT MEDUX UM867 KOGAT DCT DISOR DCT RIKSO UN127 IMR UN135 NESIL
Aircraft B738/M-SDFGHIJ1RWXY/LB1

Departure

Time 2026-05-01 13:36
Airport Paris-Orly Airport (LFPO)

Arrival

Time N/A
Airport Antalya International Airport (LTAI)
Time Latitude Longitude Altitude Speed Heading
2026-05-01 12:41 48.72686 2.36591 284 ft 0 kts
2026-05-01 13:19 48.72682 2.36591 288 ft 3 kts
2026-05-01 13:20 48.72656 2.36588 290 ft 4 kts
2026-05-01 13:20 48.72629 2.36585 292 ft 4 kts
2026-05-01 13:20 48.72607 2.36584 290 ft 4 kts 348°
2026-05-01 13:21 48.72583 2.36635 295 ft 3 kts 248°
2026-05-01 13:21 48.72593 2.36668 295 ft 1 kts 247°
2026-05-01 13:21 48.72593 2.36669 295 ft 0 kts 247°
2026-05-01 13:31 48.72591 2.36662 290 ft 2 kts 247°
2026-05-01 13:32 48.72523 2.36613 293 ft 10 kts 181°
2026-05-01 13:33 48.72414 2.36196 296 ft 19 kts 254°
2026-05-01 13:33 48.72334 2.35755 292 ft 24 kts 254°
2026-05-01 13:34 48.72081 2.35672 294 ft 22 kts 151°
2026-05-01 13:34 48.71963 2.35980 292 ft 14 kts 67°
2026-05-01 13:35 48.71967 2.35996 292 ft 0 kts 71°
2026-05-01 13:35 48.72189 2.37200 292 ft 129 kts 75°
2026-05-01 13:36 48.72471 2.38767 358 ft 177 kts 76°
2026-05-01 13:36 48.72784 2.40665 941 ft 191 kts 77°
2026-05-01 13:36 48.73482 2.44628 2624 ft 196 kts 75°
2026-05-01 13:37 48.73884 2.46692 3030 ft 220 kts 75°
2026-05-01 13:37 48.74195 2.49061 3402 ft 239 kts 86°
2026-05-01 13:37 48.74376 2.51641 3897 ft 247 kts 86°
2026-05-01 13:37 48.74531 2.54249 4430 ft 258 kts 89°
2026-05-01 13:38 48.74748 2.59890 5870 ft 271 kts 87°
2026-05-01 13:38 48.74937 2.62743 6684 ft 273 kts 85°
2026-05-01 13:38 48.75150 2.65587 7444 ft 277 kts 85°
2026-05-01 13:39 48.75377 2.68491 8222 ft 279 kts 85°
2026-05-01 13:39 48.75604 2.71434 8997 ft 283 kts 86°
2026-05-01 13:39 48.75832 2.74405 9774 ft 285 kts 86°
2026-05-01 13:39 48.76062 2.77409 10498 ft 290 kts 86°
2026-05-01 13:40 48.76300 2.80554 10745 ft 312 kts 86°
2026-05-01 13:40 48.76557 2.83946 10941 ft 335 kts 86°
2026-05-01 13:40 48.76830 2.87522 11390 ft 346 kts 86°
2026-05-01 13:40 48.77108 2.91165 12076 ft 349 kts 86°
2026-05-01 13:41 48.77386 2.94832 12804 ft 352 kts 86°
2026-05-01 13:41 48.77672 2.98518 13155 ft 353 kts 85°
2026-05-01 13:41 48.78066 3.02224 13201 ft 357 kts 83°
2026-05-01 13:41 48.78521 3.05909 13191 ft 355 kts 82°
2026-05-01 13:42 48.78984 3.09580 13204 ft 355 kts 82°
2026-05-01 13:42 48.79441 3.13258 13209 ft 354 kts 82°
2026-05-01 13:42 48.79888 3.16934 13217 ft 355 kts 83°
2026-05-01 13:42 48.80329 3.20618 13210 ft 355 kts 83°
2026-05-01 13:43 48.80766 3.24305 13214 ft 355 kts 83°
2026-05-01 13:43 48.81202 3.27998 13220 ft 355 kts 83°
2026-05-01 13:43 48.81634 3.31685 13222 ft 356 kts 83°
2026-05-01 13:43 48.82065 3.35376 13227 ft 356 kts 83°
2026-05-01 13:44 48.82296 3.39087 13209 ft 352 kts 95°
2026-05-01 13:44 48.82094 3.42774 13219 ft 350 kts 99°
2026-05-01 13:44 48.81824 3.46450 13220 ft 350 kts 99°
2026-05-01 13:44 48.81548 3.50123 13205 ft 351 kts 99°
2026-05-01 13:45 48.81281 3.53828 13214 ft 355 kts 98°
2026-05-01 13:45 48.81023 3.57560 13216 ft 356 kts 98°
2026-05-01 13:45 48.80771 3.61293 13210 ft 356 kts 98°
2026-05-01 13:45 48.80526 3.65021 13209 ft 355 kts 98°
2026-05-01 13:46 48.80283 3.68746 13220 ft 354 kts 98°
2026-05-01 13:46 48.80042 3.72452 13212 ft 353 kts 98°
2026-05-01 13:46 48.79802 3.76148 13222 ft 352 kts 98°
2026-05-01 13:46 48.79561 3.79836 13215 ft 351 kts 98°
2026-05-01 13:47 48.79319 3.83511 13226 ft 350 kts 98°
2026-05-01 13:47 48.79077 3.87179 13229 ft 350 kts 98°
2026-05-01 13:47 48.78833 3.90849 13224 ft 350 kts 98°
2026-05-01 13:47 48.78588 3.94514 13235 ft 350 kts 98°
2026-05-01 13:48 48.78342 3.98180 13237 ft 350 kts 98°
2026-05-01 13:48 48.78095 4.01858 13239 ft 350 kts 98°
2026-05-01 13:48 48.77847 4.05534 13241 ft 351 kts 98°
2026-05-01 13:48 48.77597 4.09201 13242 ft 351 kts 98°
2026-05-01 13:49 48.77334 4.12893 13235 ft 351 kts 101°
2026-05-01 13:49 48.76584 4.16368 13237 ft 346 kts 121°
2026-05-01 13:49 48.75270 4.19405 13238 ft 345 kts 127°
2026-05-01 13:49 48.73874 4.22361 13240 ft 345 kts 127°
2026-05-01 13:50 48.72460 4.25302 13235 ft 345 kts 128°
2026-05-01 13:50 48.71049 4.28236 13243 ft 345 kts 127°
2026-05-01 13:50 48.69638 4.31188 13241 ft 346 kts 127°
2026-05-01 13:50 48.68236 4.34137 13235 ft 345 kts 127°
2026-05-01 13:51 48.66834 4.37094 13233 ft 346 kts 127°
2026-05-01 13:51 48.65434 4.40053 13231 ft 346 kts 127°
2026-05-01 13:51 48.64031 4.43020 13229 ft 347 kts 127°
2026-05-01 13:51 48.62631 4.45983 13232 ft 347 kts 127°
2026-05-01 13:52 48.61221 4.48959 13234 ft 348 kts 127°
2026-05-01 13:52 48.59815 4.51928 13238 ft 348 kts 127°
2026-05-01 13:52 48.58408 4.54898 13229 ft 348 kts 127°
2026-05-01 13:52 48.57000 4.57867 13227 ft 348 kts 127°
2026-05-01 13:53 48.55590 4.60834 13223 ft 347 kts 127°
2026-05-01 13:53 48.52780 4.66742 13229 ft 346 kts 127°
2026-05-01 13:53 48.51392 4.69656 13230 ft 347 kts 127°
2026-05-01 13:54 48.49986 4.72603 13221 ft 346 kts 127°
2026-05-01 13:54 48.48560 4.75586 13211 ft 346 kts 127°
2026-05-01 13:54 48.47152 4.78531 13213 ft 345 kts 127°
2026-05-01 13:54 48.45768 4.81424 13224 ft 346 kts 127°
2026-05-01 13:55 48.44360 4.84361 13214 ft 346 kts 127°
2026-05-01 13:55 48.43408 4.86346 13217 ft 346 kts 127°
2026-05-01 13:55 48.41998 4.89286 13221 ft 346 kts 127°
2026-05-01 13:55 48.40125 4.93182 13215 ft 347 kts 127°
2026-05-01 13:56 48.39171 4.95167 13219 ft 347 kts 127°
2026-05-01 13:56 48.37757 4.98102 13218 ft 347 kts 127°
2026-05-01 13:56 48.35879 5.01998 13215 ft 347 kts 127°
2026-05-01 13:56 48.34922 5.03983 13217 ft 347 kts 127°
2026-05-01 13:57 48.33504 5.06919 13224 ft 347 kts 127°
2026-05-01 13:57 48.32086 5.09851 13215 ft 347 kts 127°
2026-05-01 13:57 48.30672 5.12789 13221 ft 347 kts 126°
2026-05-01 13:57 48.29506 5.15965 13222 ft 349 kts 115°
2026-05-01 13:58 48.28738 5.19427 13220 ft 351 kts 105°
2026-05-01 13:58 48.28202 5.22998 13224 ft 351 kts 104°
2026-05-01 13:58 48.27683 5.26584 13224 ft 352 kts 104°
2026-05-01 13:58 48.27165 5.30181 13220 ft 353 kts 104°
2026-05-01 13:59 48.26644 5.33781 13219 ft 353 kts 104°
2026-05-01 13:59 48.26118 5.37381 13221 ft 354 kts 104°
2026-05-01 13:59 48.25585 5.40986 13229 ft 354 kts 104°
2026-05-01 13:59 48.25050 5.44585 13222 ft 354 kts 104°
2026-05-01 14:00 48.24511 5.48190 13226 ft 354 kts 104°
2026-05-01 14:00 48.23971 5.51788 13230 ft 353 kts 104°
2026-05-01 14:00 48.23431 5.55377 13226 ft 353 kts 104°
2026-05-01 14:00 48.22889 5.58963 13226 ft 352 kts 104°
2026-05-01 14:01 48.22348 5.62529 13231 ft 352 kts 104°
2026-05-01 14:01 48.21803 5.66117 13239 ft 352 kts 104°
2026-05-01 14:01 48.21259 5.69694 13238 ft 352 kts 104°
2026-05-01 14:01 48.20711 5.73279 13241 ft 353 kts 104°
2026-05-01 14:02 48.20163 5.76863 13236 ft 353 kts 105°
2026-05-01 14:02 48.19613 5.80453 13243 ft 353 kts 105°
2026-05-01 14:02 48.19063 5.84036 13237 ft 353 kts 105°
2026-05-01 14:02 48.18510 5.87625 13239 ft 353 kts 105°
2026-05-01 14:03 48.17956 5.91213 13249 ft 354 kts 105°
2026-05-01 14:03 48.17402 5.94799 13246 ft 354 kts 105°
2026-05-01 14:03 48.16845 5.98390 13248 ft 354 kts 105°
2026-05-01 14:03 48.16286 6.01992 13240 ft 355 kts 104°
2026-05-01 14:04 48.15726 6.05588 13236 ft 355 kts 105°
2026-05-01 14:04 48.15164 6.09189 13240 ft 355 kts 105°
2026-05-01 14:04 48.14601 6.12790 13241 ft 355 kts 105°
2026-05-01 14:04 48.14037 6.16388 13237 ft 355 kts 105°
2026-05-01 14:05 48.13471 6.19992 13236 ft 355 kts 105°
2026-05-01 14:05 48.12905 6.23586 13243 ft 355 kts 105°
2026-05-01 14:05 48.12339 6.27177 13252 ft 355 kts 105°
2026-05-01 14:05 48.11770 6.30772 13244 ft 355 kts 105°
2026-05-01 14:06 48.11202 6.34358 13257 ft 354 kts 105°
2026-05-01 14:06 48.10632 6.37947 13259 ft 355 kts 105°
2026-05-01 14:06 48.10062 6.41534 13253 ft 355 kts 105°
2026-05-01 14:06 48.09489 6.45119 13251 ft 355 kts 105°
2026-05-01 14:07 48.08915 6.48713 13258 ft 355 kts 105°
2026-05-01 14:07 48.08341 6.52295 13265 ft 355 kts 105°
2026-05-01 14:07 48.07765 6.55881 13623 ft 362 kts 105°
2026-05-01 14:08 48.06587 6.63193 15119 ft 363 kts 105°
2026-05-01 14:08 48.05992 6.66871 15740 ft 366 kts 105°
2026-05-01 14:08 48.05390 6.70592 16344 ft 370 kts 105°
2026-05-01 14:08 48.04780 6.74349 16959 ft 374 kts 105°
2026-05-01 14:09 48.04164 6.78137 17576 ft 377 kts 105°
2026-05-01 14:09 48.03541 6.81961 18211 ft 380 kts 105°
2026-05-01 14:09 48.02911 6.85813 18809 ft 383 kts 105°
2026-05-01 14:09 48.02276 6.89691 19343 ft 386 kts 104°
2026-05-01 14:10 48.01635 6.93599 19855 ft 389 kts 105°
2026-05-01 14:10 48.00989 6.97526 20427 ft 391 kts 105°
2026-05-01 14:10 48.00335 7.01487 20923 ft 395 kts 104°
2026-05-01 14:10 47.99675 7.05482 21397 ft 398 kts 104°
2026-05-01 14:11 47.99010 7.09493 21968 ft 399 kts 104°
2026-05-01 14:11 47.97662 7.17600 22883 ft 407 kts 104°
2026-05-01 14:11 47.96977 7.21709 23414 ft 408 kts 104°
2026-05-01 14:12 47.96287 7.25832 23844 ft 413 kts 103°
2026-05-01 14:12 47.95587 7.30008 24168 ft 417 kts 103°
2026-05-01 14:12 47.94877 7.34233 24566 ft 419 kts 103°
2026-05-01 14:12 47.94166 7.38451 24983 ft 421 kts 103°
2026-05-01 14:13 47.93451 7.42685 25369 ft 423 kts 103°
2026-05-01 14:13 47.92963 7.45568 25614 ft 425 kts 103°
2026-05-01 14:13 47.92002 7.51245 26079 ft 428 kts 103°
2026-05-01 14:13 47.91270 7.55545 26516 ft 428 kts 103°
2026-05-01 14:14 47.90494 7.59821 26998 ft 427 kts 107°
2026-05-01 14:14 47.89515 7.63989 27499 ft 426 kts 109°
2026-05-01 14:14 47.88460 7.68107 27984 ft 425 kts 110°
2026-05-01 14:14 47.87382 7.72214 28437 ft 425 kts 110°
2026-05-01 14:15 47.86309 7.76312 28901 ft 424 kts 110°
2026-05-01 14:15 47.85250 7.80399 29384 ft 423 kts 110°
2026-05-01 14:15 47.84198 7.84500 29844 ft 423 kts 110°
2026-05-01 14:15 47.83157 7.88578 30291 ft 422 kts 110°
2026-05-01 14:16 47.82117 7.92667 30668 ft 422 kts 110°
2026-05-01 14:16 47.81078 7.96750 31040 ft 421 kts 110°
2026-05-01 14:16 47.80040 8.00824 31388 ft 421 kts 110°
2026-05-01 14:16 47.79000 8.04902 31739 ft 421 kts 110°
2026-05-01 14:17 47.77963 8.08954 32091 ft 420 kts 110°
2026-05-01 14:17 47.76925 8.13004 32428 ft 420 kts 110°
2026-05-01 14:17 47.75883 8.17064 32745 ft 420 kts 110°
2026-05-01 14:17 47.74842 8.21112 33076 ft 419 kts 110°
2026-05-01 14:18 47.73798 8.25160 33400 ft 419 kts 110°
2026-05-01 14:18 47.72760 8.29183 33665 ft 420 kts 110°
2026-05-01 14:18 47.71708 8.33252 33974 ft 420 kts 110°
2026-05-01 14:18 47.71016 8.35931 34208 ft 419 kts 111°
2026-05-01 14:19 47.69619 8.41315 34561 ft 419 kts 111°
2026-05-01 14:19 47.68580 8.45350 34809 ft 418 kts 109°
2026-05-01 14:19 47.67622 8.49401 35144 ft 415 kts 108°
2026-05-01 14:19 47.66724 8.53403 35302 ft 417 kts 107°
2026-05-01 14:20 47.63976 8.65766 35282 ft 420 kts 107°
2026-05-01 14:21 47.62130 8.73909 35285 ft 414 kts 107°
2026-05-01 14:21 47.60282 8.81979 35302 ft 414 kts 108°
2026-05-01 14:22 47.57489 8.94102 35300 ft 415 kts 107°
2026-05-01 14:22 47.55616 9.02195 35297 ft 416 kts 107°
2026-05-01 14:23 47.53737 9.10288 35299 ft 416 kts 107°
2026-05-01 14:23 47.51847 9.18394 35298 ft 417 kts 108°
2026-05-01 14:24 47.49950 9.26498 35303 ft 417 kts 107°
2026-05-01 14:24 47.48047 9.34605 35290 ft 417 kts 107°
2026-05-01 14:25 47.46138 9.42703 35295 ft 417 kts 107°
2026-05-01 14:25 47.44226 9.50783 35290 ft 417 kts 107°
2026-05-01 14:26 47.41348 9.62896 35283 ft 416 kts 107°
2026-05-01 14:27 47.39902 9.71109 35280 ft 412 kts 98°
2026-05-01 14:27 47.38891 9.79430 35277 ft 411 kts 98°
2026-05-01 14:28 47.37328 9.91852 35280 ft 410 kts 98°
2026-05-01 14:28 47.36243 10.00106 35292 ft 410 kts 98°
2026-05-01 14:29 47.35149 10.08351 35303 ft 410 kts 98°
2026-05-01 14:30 47.32892 10.24788 35293 ft 410 kts 106°
2026-05-01 14:30 47.31606 10.28544 35305 ft 414 kts 125°
2026-05-01 14:31 47.27117 10.33867 35339 ft 420 kts 147°
2026-05-01 14:31 47.22076 10.38256 35329 ft 422 kts 147°
2026-05-01 14:32 47.17043 10.42727 35286 ft 423 kts 146°
2026-05-01 14:32 47.12032 10.47226 35284 ft 421 kts 146°
2026-05-01 14:33 47.07024 10.51707 35283 ft 423 kts 148°
2026-05-01 14:33 47.01548 10.54945 35301 ft 427 kts 162°
2026-05-01 14:34 46.95829 10.57388 35299 ft 429 kts 161°
2026-05-01 14:34 46.90095 10.59953 35287 ft 432 kts 160°
2026-05-01 14:34 46.87335 10.61644 35268 ft 429 kts 147°
2026-05-01 14:35 46.84888 10.64076 35295 ft 425 kts 137°
2026-05-01 14:35 46.82779 10.67083 35299 ft 422 kts 126°
2026-05-01 14:35 46.80937 10.70399 35307 ft 422 kts 125°
2026-05-01 14:36 46.77284 10.77119 35276 ft 423 kts 125°
2026-05-01 14:36 46.73622 10.83784 35296 ft 422 kts 126°
2026-05-01 14:37 46.69934 10.90412 35301 ft 422 kts 126°
2026-05-01 14:37 46.66251 10.96993 35317 ft 423 kts 126°
2026-05-01 14:38 46.62504 11.03669 35300 ft 422 kts 126°
2026-05-01 14:38 46.59425 11.09141 35276 ft 419 kts 126°
2026-05-01 14:39 46.55755 11.15654 35290 ft 414 kts 126°
2026-05-01 14:39 46.52116 11.22102 35278 ft 411 kts 126°
2026-05-01 14:40 46.48493 11.28507 35228 ft 409 kts 126°
2026-05-01 14:40 46.44871 11.34868 35253 ft 409 kts 126°
2026-05-01 14:41 46.41215 11.41172 35238 ft 411 kts 126°
2026-05-01 14:41 46.37494 11.47566 35292 ft 420 kts 126°
2026-05-01 14:42 46.33713 11.54058 35294 ft 424 kts 126°
2026-05-01 14:42 46.29946 11.60508 35282 ft 417 kts 126°
2026-05-01 14:43 46.26238 11.66846 35293 ft 414 kts 126°
2026-05-01 14:43 46.22535 11.73169 35287 ft 415 kts 126°
2026-05-01 14:44 46.18799 11.79535 35300 ft 416 kts 126°
2026-05-01 14:44 46.13186 11.89066 35300 ft 417 kts 126°
2026-05-01 14:45 46.07544 11.98613 35337 ft 418 kts 126°
2026-05-01 14:46 46.03777 12.04969 35332 ft 418 kts 126°
2026-05-01 14:46 45.98096 12.14529 35320 ft 420 kts 126°
2026-05-01 14:47 45.94261 12.20969 35328 ft 429 kts 126°
2026-05-01 14:48 45.88343 12.30869 35358 ft 443 kts 126°
2026-05-01 14:48 45.82236 12.41034 35321 ft 450 kts 126°
2026-05-01 14:49 45.74061 12.54587 35321 ft 449 kts 126°
2026-05-01 14:50 45.65898 12.68063 35324 ft 448 kts 126°
2026-05-01 14:51 45.60121 12.77560 35322 ft 446 kts 126°
2026-05-01 14:52 45.54772 12.86325 35324 ft 445 kts 126°
2026-05-01 14:53 45.50178 12.93828 35351 ft 445 kts 126°
2026-05-01 14:53 45.47601 12.98031 35347 ft 444 kts 125°
2026-05-01 14:54 45.44972 13.02469 35318 ft 439 kts 119°
2026-05-01 14:54 45.42302 13.07249 35384 ft 441 kts 126°
2026-05-01 14:55 45.38074 13.13657 35325 ft 445 kts 127°
2026-05-01 14:55 45.33938 13.20176 35314 ft 444 kts 125°
2026-05-01 14:56 45.30370 13.26762 35325 ft 435 kts 112°
2026-05-01 14:56 45.27953 13.33898 35314 ft 432 kts 109°
2026-05-01 14:57 45.25427 13.41611 35301 ft 433 kts 109°
2026-05-01 14:57 45.21568 13.53198 35301 ft 433 kts 109°
2026-05-01 14:58 45.18968 13.60910 35337 ft 433 kts 109°
2026-05-01 14:58 45.16360 13.68612 35314 ft 433 kts 109°
2026-05-01 14:59 45.13747 13.76304 35304 ft 433 kts 109°
2026-05-01 14:59 45.11135 13.83974 35304 ft 432 kts 109°
2026-05-01 15:00 45.07218 13.95433 35323 ft 430 kts 109°
2026-05-01 15:01 45.04621 14.03006 35310 ft 430 kts 109°
2026-05-01 15:01 45.02117 14.10287 35297 ft 429 kts 109°
2026-05-01 15:02 44.99602 14.17580 35305 ft 428 kts 109°
2026-05-01 15:02 44.97016 14.25059 35296 ft 427 kts 109°
2026-05-01 15:03 44.94432 14.32510 35296 ft 428 kts 108°
2026-05-01 15:03 44.91839 14.39967 35295 ft 427 kts 108°
2026-05-01 15:04 44.89293 14.47269 35293 ft 426 kts 108°
2026-05-01 15:04 44.86721 14.54626 35290 ft 426 kts 108°
2026-05-01 15:05 44.84126 14.62027 35313 ft 425 kts 108°
2026-05-01 15:05 44.81573 14.69290 35304 ft 425 kts 108°
2026-05-01 15:06 44.78952 14.76725 35297 ft 424 kts 108°
2026-05-01 15:06 44.76339 14.84119 35296 ft 424 kts 108°
2026-05-01 15:07 44.73707 14.91544 35300 ft 424 kts 108°
2026-05-01 15:07 44.71068 14.98972 35284 ft 425 kts 108°
2026-05-01 15:08 44.68416 15.06413 35286 ft 425 kts 108°
2026-05-01 15:08 44.65765 15.13830 35289 ft 425 kts 108°
2026-05-01 15:09 44.63107 15.21252 35279 ft 425 kts 108°
2026-05-01 15:09 44.60442 15.28667 35286 ft 426 kts 108°
2026-05-01 15:10 44.57770 15.36082 35290 ft 425 kts 109°
2026-05-01 15:10 44.53761 15.47169 35285 ft 425 kts 109°
2026-05-01 15:11 44.49746 15.58229 35325 ft 424 kts 108°
2026-05-01 15:12 44.47064 15.65594 35287 ft 424 kts 108°
2026-05-01 15:12 44.43041 15.76605 35273 ft 424 kts 109°
2026-05-01 15:14 44.36307 15.94934 35278 ft 424 kts 109°
2026-05-01 15:14 44.32256 16.05902 35274 ft 423 kts 109°
2026-05-01 15:15 44.26849 16.20474 35262 ft 422 kts 109°
2026-05-01 15:16 44.21440 16.34979 35271 ft 423 kts 109°
2026-05-01 15:18 44.14594 16.53229 35262 ft 427 kts 109°
2026-05-01 15:19 44.09083 16.67820 35273 ft 425 kts 110°
2026-05-01 15:19 44.04930 16.78780 35265 ft 429 kts 110°
2026-05-01 15:20 44.00725 16.89835 35268 ft 434 kts 110°
2026-05-01 15:21 43.97894 16.97247 35260 ft 435 kts 110°
2026-05-01 15:21 43.95053 17.04663 35273 ft 436 kts 111°
2026-05-01 15:22 43.90761 17.15833 35261 ft 437 kts 111°
2026-05-01 15:22 43.87889 17.23277 35265 ft 438 kts 111°
2026-05-01 15:23 43.85012 17.30722 35255 ft 438 kts 111°
2026-05-01 15:23 43.82134 17.38151 35259 ft 438 kts 111°
2026-05-01 15:24 43.79737 17.44324 35256 ft 439 kts 111°
2026-05-01 15:24 43.76839 17.51765 35250 ft 440 kts 112°
2026-05-01 15:25 43.73928 17.59225 35252 ft 442 kts 112°
2026-05-01 15:25 43.71000 17.66705 35245 ft 443 kts 112°
2026-05-01 15:26 43.68056 17.74207 35222 ft 443 kts 113°
2026-05-01 15:26 43.65122 17.81652 35236 ft 441 kts 113°
2026-05-01 15:27 43.62195 17.89073 35243 ft 440 kts 113°
2026-05-01 15:28 43.57789 18.00211 35224 ft 442 kts 113°
2026-05-01 15:28 43.54837 18.07641 35234 ft 441 kts 114°
2026-05-01 15:29 43.50387 18.18816 35232 ft 445 kts 114°
2026-05-01 15:30 43.44879 18.32581 35233 ft 452 kts 114°
2026-05-01 15:31 43.38225 18.49123 35544 ft 462 kts 115°
2026-05-01 15:31 43.35118 18.56809 36050 ft 460 kts 115°
2026-05-01 15:32 43.31997 18.64511 36382 ft 462 kts 115°
2026-05-01 15:32 43.28868 18.72208 36755 ft 462 kts 116°
2026-05-01 15:33 43.24146 18.83797 37222 ft 463 kts 116°
2026-05-01 15:34 43.19390 18.95424 37233 ft 468 kts 116°